Change the Weather History Date:

Saturday, March 16, 2013

  Actual Average Record
Temperature  
Mean Temperature 44 °F -  
Max Temperature 48 °F 60 °F 80 °F (2009)
Min Temperature 41 °F 45 °F 41 °F (2013)
Degree Days  
Heating Degree Days 20    
Moisture  
Dew Point 41 °F    
Average Humidity 90    
Maximum Humidity 100    
Minimum Humidity 66    
Precipitation  
Precipitation 0.08 in 0.22 in - ()
Sea Level Pressure  
Sea Level Pressure 29.77 in    
Wind  
Wind Speed 7 mph ()    
Max Wind Speed 15 mph    
Max Gust Speed 25 mph    
Visibility 3.4 miles    
Events Fog , Rain    
Averages and records for this station are not official NWS values.
T = Trace of Precipitation, MM = Missing Value Source: Averaged Metar Reports

Daily Weather History Graph

Daily Weather History Graph

Search for Another Location

Airport or City:

Trip Planner

Search our weather history database for the weather conditions in past years. The results will help you decide how hot, cold, wet, or windy it might be!

Date:

Astronomy

Mar. 16, 2013 Rise Set
Actual Time 7:44 AM CET 7:42 PM CET
Civil Twilight 7:16 AM CET 8:10 PM CET
Nautical Twilight 6:44 AM CET 8:42 PM CET
Astronomical Twilight 6:11 AM CET 9:15 PM CET
Moon 9:59 AM CET (3/16) No Moon Set
Length of Visible Light 12h 53m
Length of Day
11h 57m
Waxing Crescent, 21% of the Moon is Illuminated
Mar 16
Waxing Crescent
Mar 19
First Quarter
Mar 27
Full
Apr 3
Last Quarter
Apr 10
New

Hourly Weather History & Observations

Time (CET) Temp. Windchill Dew Point Humidity Pressure Visibility Wind Dir Wind Speed Gust Speed Precip Events Conditions
12:00 AM 44.6 °F - 33.8 °F 66% 29.95 in - Variable 2.3 mph - N/A   Clear
12:30 AM 44.6 °F - 33.8 °F 66% 29.95 in - Variable 2.3 mph - N/A   Clear
1:00 AM 44.6 °F 42.2 °F 35.6 °F 71% 29.92 in 6.2 mi SSW 4.6 mph - N/A Rain Light Rain
1:30 AM 44.6 °F 42.2 °F 35.6 °F 71% 29.92 in 6.2 mi SW 4.6 mph - N/A Rain Light Rain
2:00 AM 44.6 °F 42.2 °F 35.6 °F 71% 29.92 in 6.2 mi SSW 4.6 mph - N/A   Mostly Cloudy
2:30 AM 44.6 °F 42.2 °F 35.6 °F 71% 29.92 in 6.2 mi SSW 4.6 mph - N/A   Mostly Cloudy
3:00 AM 44.6 °F 42.2 °F 35.6 °F 71% 29.89 in 6.2 mi SSW 4.6 mph - N/A Rain Light Rain
3:30 AM 44.6 °F 42.2 °F 35.6 °F 71% 29.89 in 6.2 mi SSW 4.6 mph - N/A Rain Light Rain
4:00 AM 44.6 °F 42.2 °F 35.6 °F 71% 29.89 in 6.2 mi SSW 4.6 mph - N/A Rain Light Rain
4:30 AM 44.6 °F 43.1 °F 35.6 °F 71% 29.89 in 6.2 mi Variable 3.5 mph - N/A   Mostly Cloudy
5:00 AM 42.8 °F 37.5 °F 42.8 °F 100% 29.86 in 0.2 mi South 9.2 mph - N/A Fog , Rain Light Rain
5:30 AM 42.8 °F 37.5 °F 42.8 °F 100% 29.83 in 0.2 mi South 9.2 mph - N/A Fog , Rain Light Fog
6:00 AM 42.8 °F 38.0 °F 42.8 °F 100% 29.80 in 0.3 mi South 8.1 mph - N/A Fog Fog
6:30 AM 42.8 °F 37.5 °F 42.8 °F 100% 29.80 in 0.2 mi South 9.2 mph - N/A Fog Fog
7:00 AM 44 °F - 44 °F 99% 29.83 in 1 mi South 10.4 mph - - Fog Partial Fog
7:00 AM 41.0 °F 34.7 °F 41.0 °F 100% 29.80 in 0.6 mi South 10.4 mph - N/A Fog , Rain Light Fog
7:30 AM 41.0 °F 35.2 °F 41.0 °F 100% 29.80 in 0.6 mi South 9.2 mph - N/A Fog , Rain Light Fog
8:00 AM 41.0 °F 34.7 °F 41.0 °F 100% 29.80 in 0.3 mi South 10.4 mph - N/A Fog , Rain Light Fog
8:30 AM 41.0 °F 34.7 °F 41.0 °F 100% 29.80 in 0.2 mi South 10.4 mph - N/A Fog , Rain Light Fog
9:00 AM 42.8 °F 37.0 °F 42.8 °F 100% 29.77 in 0.3 mi South 10.4 mph - N/A Fog , Rain Light Fog
9:30 AM 41.0 °F 34.3 °F 41.0 °F 100% 29.77 in 0.4 mi South 11.5 mph - N/A Rain Light Rain
10:30 AM 42.8 °F 36.2 °F 42.8 °F 100% 29.77 in 0.7 mi South 12.7 mph - N/A Rain Light Rain
11:00 AM 42.8 °F 36.6 °F 42.8 °F 100% 29.77 in 1.2 mi South 11.5 mph - N/A Fog Fog
11:30 AM 42.8 °F 35.8 °F 42.8 °F 100% 29.77 in 1.2 mi South 13.8 mph - N/A Fog Fog
12:30 PM 42.8 °F 37.5 °F 42.8 °F 100% 29.77 in 3.1 mi South 9.2 mph - N/A Rain Mostly Cloudy
1:00 PM 46 °F - 44 °F 88% 29.79 in 2 mi South 9.2 mph - -   Mist
1:00 PM 42.8 °F 38.0 °F 42.8 °F 100% 29.77 in 5.0 mi South 8.1 mph - N/A   Mostly Cloudy
1:30 PM 44.6 °F 40.2 °F 41.0 °F 87% 29.74 in 6.2 mi South 8.1 mph - N/A   Mostly Cloudy
2:00 PM 44.6 °F 40.2 °F 41.0 °F 87% 29.74 in 6.2 mi South 8.1 mph - N/A   Mostly Cloudy
2:30 PM 44.6 °F 40.7 °F 41.0 °F 87% 29.74 in 3.1 mi SW 6.9 mph - N/A Rain Rain
3:00 PM 44.6 °F 41.4 °F 42.8 °F 93% 29.74 in 6.2 mi South 5.8 mph - N/A   Mostly Cloudy
3:30 PM 44.6 °F 43.1 °F 42.8 °F 93% 29.71 in 6.2 mi Variable 3.5 mph - N/A Rain Rain
4:00 PM 44.6 °F 40.7 °F 42.8 °F 93% 29.71 in 5.6 mi South 6.9 mph - N/A Rain Rain
4:30 PM 44.6 °F 41.4 °F 42.8 °F 93% 29.71 in 6.2 mi South 5.8 mph - N/A Rain Light Rain
5:00 PM 44.6 °F 41.4 °F 41.0 °F 87% 29.68 in 6.2 mi South 5.8 mph - N/A   Mostly Cloudy
5:30 PM 46.4 °F 40.4 °F 39.2 °F 76% 29.68 in 6.2 mi South 13.8 mph - N/A   Mostly Cloudy
6:00 PM 46.4 °F 40.4 °F 41.0 °F 81% 29.68 in 6.2 mi South 13.8 mph - N/A Rain Rain
6:30 PM 44.6 °F 38.4 °F 41.0 °F 87% 29.68 in 6.2 mi South 12.7 mph 24.2 mph N/A Rain Rain
7:00 PM 47 °F - 43 °F 82% 29.70 in 5 mi South 15.0 mph - - Rain Light Rain
7:00 PM 44.6 °F 38.1 °F 41.0 °F 87% 29.68 in 5.0 mi South 13.8 mph - N/A Rain Rain
7:30 PM 44.6 °F 38.1 °F 42.8 °F 93% 29.68 in 1.9 mi South 13.8 mph 25.3 mph N/A Rain Rain
8:00 PM 42.8 °F 35.8 °F 42.8 °F 100% 29.68 in 1.9 mi South 13.8 mph 25.3 mph N/A Fog , Rain Rain
8:30 PM 42.8 °F 35.8 °F 42.8 °F 100% 29.65 in 1.9 mi South 13.8 mph - N/A Fog , Rain Rain
9:30 PM 44.6 °F 40.2 °F 44.6 °F 100% 29.65 in 1.6 mi South 8.1 mph - N/A Fog , Rain Rain
10:00 PM 44.6 °F 38.8 °F 44.6 °F 100% 29.65 in 1.6 mi South 11.5 mph - N/A Fog , Rain Rain
10:30 PM 44.6 °F 40.2 °F 44.6 °F 100% 29.65 in 1.6 mi South 8.1 mph - N/A Fog , Rain Rain
11:00 PM 44.6 °F 40.2 °F 44.6 °F 100% 29.65 in 1.6 mi South 8.1 mph - N/A Fog Drizzle
11:30 PM 44.6 °F 40.2 °F 44.6 °F 100% 29.62 in 1.6 mi South 8.1 mph - N/A Fog Drizzle